SCP
0 0 0 0 0 0 0 0 0 0 0 0 0 0 0 0 0 0 0 0 0 0 0 0 0 0 0 0 0 0 0 0 0 0 0 0 0 0 0 0 0 0 0 0
0 0 0 0 0 0 0 0 0 0 0 0 0 0 0 0 0 0 0 0 0 0 0 0 0 0 0 0 0 0 0 0 0 0 0 0 0 0 0 0 0 0 0 0
0 0 0 0 0 0 0 0 0 0 0 0 0 0 0 0 0 0 0 0 0 0 0 0 0 0 0 0 0 0 0 0 0 0 0 0 0 0 0 0 0 0 0 0
0 0 0 0 0 0 0 0 0 0 0 0 0 0 0 0 0 0 0 0 0 0 0 0 0 0 0 0 0 0 0 0 0 0 0 0 0 0 0 0 0 0 0 0
0 0 0 0 0 0 0 0 0 0 0 0 0 0 0 0 0 0 0 0 0 0 0 0 0 0 0 0 0 0 0 0 0 0 0 0 0 0 0 0 0 0 0 0
0 0 0 0 0 0 0 0 0 0 0 0 0 0 0 0 0 0 0 0 0 0 0 0 0 0 0 0 0 0 0 0 0 0 0 0 0 0 0 0 0 0 0 0
0 -0 0 0 0 0 0 0 0 0 0 0 0 0 -0 0 0 0 0 0 0 0 0 0 0 0 0 0 0 0 0 0 0 0 0 0 0 0 0 0 0 0 0 0
-0 0 0 0 0 -0 0 0 0 0 0 0 -0 0 0 0 0 0 0 0 0 0 0 0 0 0 0 0 0 0 0 0 0 0 0 0 0 0 0 0 0 0 0 0
0 0 -0 0 -0 -0 0 0 0 0 0 0 -0 -0 0 0 0 0 0 0 0 0 0 0 0 0 0 0 0 0 0 0 0 0 0 0 0 0 0 0 0 0 0 0
-0 -0 -0 -0 -0 -0 0 0 0 0 0 0 0 0 0 0 0 0 0 0 0 0 0 0 0 0 0 0 0 0 0 0 0 0 0 0 0 0 0 0 0 0 0 0
-0 -0 0 -0 -0 -0 0 0 0 0 0 0 -0 0 -0 -0 -0 0 0 0 0 0 0 0 0 0 0 0 0 0 0 0 0 0 0 0 0 -0 0 0 0 0 0 0
-0 -0 -0 0 -0 -0 -0 0 0 0 0 0 -0 -0 0 -0 -0 0 0 0 0 0 0 0 0 0 0 0 0 0 0 0 0 0 0 0 0 0 0 0 -0 -0 0 0
-0 0 -0 -0 0 -0 -0 0 0 0 0 -0 -0 -0 -0 -0 -0 0 0 0 0 0 0 0 0 0 0 0 0 0 0 0 0 0 0 0 0 0 0 0 0 0 0 0
0 0 0 -0 -0 -0 0 0 0 0 0 0 -0 -0 -0 -0 0 -0 0 0 0 0 0 0 0 0 0 0 0 0 0 0 0 0 0 0 0 0 0 0 0 0 0 0
0 0 0 0 0 0 0 0 0 0 0 -0 0 0 0 -0 0 0 0 0 0 0 0 0 0 0 0 0 0 0 0 0 0 0 0 0 0 0 0 0 0 0 0 0
0 0 0 0 0 0 0 0 0 0 0 0 0 0 0 0 0 -0 -0 -0 0 0 0 0 0 0 0 0 0 0 0 0 0 0 0 0 0 -0 0 0 0 0 0 0
0 0 0 0 0 0 0 0 0 0 0 0 0 0 0 0 0 0 0 0 0 0 0 0 0 0 0 0 0 0 0 0 0 0 0 0 0 0 0 0 0 0 0 0
0 0 0 0 -0 0 0 0 0 0 0 0 0 0 0 0 0 0 0 0 0 0 0 0 0 0 0 0 0 0 0 0 0 0 0 0 0 0 0 0 0 0 0 0
0 0 0 0 0 0 0 0 0 0 0 0 0 0 0 0 0 0 0 0 0 0 0 0 0 0 0 0 0 0 0 0 0 0 0 0 0 0 0 0 0 0 0 0
0 0 0 0 0 0 0 0 0 0 0 0 0 0 0 0 0 0 0 0 0 0 0 0 0 0 0 0 0 0 0 0 0 0 0 0 0 0 0 0 0 0 0 0
0 0 0 0 0 0 0 0 0 0 0 0 0 0 0 0 0 0 0 0 0 0 0 0 0 0 0 0 0 0 0 0 0 0 0 0 0 0 0 0 0 0 0 0
0 0 0 0 0 0 0 0 0 0 0 0 0 0 0 0 0 0 0 0 0 0 0 0 0 0 0 0 0 0 0 0 0 0 0 0 0 0 0 0 0 0 0 0
0 0 0 0 0 0 0 0 0 0 0 0 0 0 -0 -0 0 0 0 0 0 0 0 0 0 0 0 0 0 0 0 0 0 0 0 0 0 0 0 0 0 0 0 0
0 0 0 0 0 0 0 0 0 0 0 0 0 0 0 0 0 0 0 0 0 0 -0 0 0 0 0 0 0 0 0 0 0 0 0 0 0 0 0 0 0 0 0 0
0 0 -0 0 0 0 0 0 0 0 0 0 0 0 0 0 0 0 0 0 0 0 0 0 0 0 0 0 0 0 0 0 0 0 0 0 0 0 0 0 0 0 0 0
0 0 0 0 0 0 0 0 0 0 0 0 0 0 0 0 0 0 0 0 -0 0 0 0 0 0 0 0 0 0 0 0 0 0 0 0 0 0 0 0 0 0 0 0
-0 0 0 0 0 0 0 0 0 0 0 0 0 0 0 0 0 0 0 0 0 0 0 0 0 0 0 0 0 0 0 0 0 0 0 0 0 0 0 0 0 0 0 0
Wind_Speed_500mb
48 44 48 37 31 30 28 17 9 16 27 19 9 12 16 18 20 33 21 11 14 18 17 15 10 4 10 35 36 15 21 6 15 19 7 17 33 32 38 21 20 15 16 18
44 48 47 47 44 31 26 15 18 17 31 12 20 13 31 25 21 24 18 20 9 6 9 10 10 6 9 23 24 23 4 16 12 22 21 7 17 11 16 25 24 27 16 7
49 52 49 47 42 35 38 12 7 23 30 28 15 34 28 28 33 33 26 14 14 16 23 23 16 15 6 26 17 26 14 6 19 17 6 5 14 15 7 18 16 21 26 25
53 50 47 53 45 38 43 25 11 20 11 23 32 24 11 39 30 33 29 19 30 26 20 20 23 25 26 11 17 12 5 4 2 5 5 3 7 9 8 16 16 13 12 19
53 52 53 50 48 40 53 20 14 13 24 21 30 29 32 35 33 24 24 30 20 25 34 35 24 16 11 11 8 13 14 3 8 4 5 7 11 13 15 15 17 18 22 24
56 52 54 55 55 53 47 48 34 13 30 31 23 27 33 39 40 29 42 28 21 26 26 29 29 33 30 26 16 8 8 6 8 15 4 7 14 25 20 14 14 15 15 4
63 66 67 67 68 73 65 48 42 28 17 22 30 35 34 38 35 39 31 32 18 11 9 19 30 32 32 32 28 24 9 4 5 7 4 13 2 7 5 10 10 11 9 14
75 73 72 73 74 82 85 67 51 33 20 38 42 37 27 38 50 39 30 31 29 17 12 7 14 14 18 24 34 29 26 8 7 9 21 16 11 12 11 14 9 7 8 12
75 75 73 71 76 80 86 88 80 46 16 38 59 38 46 25 27 24 39 14 17 22 8 8 8 10 8 12 14 29 26 22 12 10 13 12 6 13 3 4 10 12 13 19
63 63 65 69 71 70 74 90 88 75 34 36 21 33 36 25 19 8 11 16 16 22 8 8 10 7 1 10 19 17 20 21 26 19 14 8 15 4 8 14 6 27 30 27
64 67 70 71 71 71 72 77 100 90 49 52 39 42 48 38 28 12 19 12 13 9 13 10 9 8 9 7 13 17 21 21 15 22 16 16 7 5 7 12 17 26 30 27
61 63 67 73 75 69 68 59 93 89 62 18 43 53 44 55 51 45 34 17 13 21 14 10 7 8 2 14 8 14 13 12 10 16 11 13 16 21 14 13 12 18 25 27
46 47 53 65 68 67 67 56 80 71 50 48 57 38 55 54 51 43 19 22 11 13 3 5 7 10 11 10 16 9 14 9 8 5 9 8 7 11 18 17 15 15 18 22
45 47 46 49 64 65 77 79 63 82 20 8 17 42 57 57 60 51 51 21 29 23 12 10 7 9 10 10 4 12 5 13 11 14 16 10 11 8 15 18 15 16 17 18
42 41 48 50 58 66 62 75 72 74 51 12 24 22 51 43 48 56 51 41 26 23 14 7 10 6 7 5 4 13 8 10 11 10 9 6 6 7 12 13 19 22 26 26
35 39 41 45 55 68 67 18 66 82 63 4 7 12 20 50 49 57 56 54 39 14 5 6 10 12 7 6 9 12 8 6 7 2 7 13 15 4 6 9 12 16 19 21
46 41 43 47 64 80 49 15 36 85 57 11 5 8 6 40 39 42 46 42 22 20 11 8 9 6 9 10 19 16 4 4 6 6 14 10 6 2 11 12 11 14 14 17
48 43 48 49 64 66 24 13 56 84 25 12 4 4 12 38 16 13 26 18 22 16 13 10 13 12 2 5 6 3 5 11 2 12 10 12 4 7 11 12 9 9 11 13
51 51 55 89 62 28 25 47 74 57 11 11 8 11 8 26 10 11 11 9 4 8 6 9 12 8 8 8 6 10 13 12 17 19 8 6 4 6 11 10 8 9 14 19
63 77 31 15 39 63 77 40 9 8 7 5 3 5 5 18 12 6 10 10 7 9 6 14 7 6 15 10 5 7 11 12 14 9 5 6 8 7 9 13 14 16 18 24
23 11 16 88 83 42 9 9 8 7 6 10 9 11 7 13 10 8 12 5 7 9 6 5 6 6 8 5 6 8 9 9 10 9 10 9 11 14 19 21 21 24 28 32
28 54 63 29 10 8 7 7 7 7 7 9 10 10 7 11 8 6 8 4 5 6 8 6 6 7 9 7 9 12 12 12 14 13 18 21 22 23 28 30 32 36 41 42
67 11 10 4 10 8 5 14 7 9 5 13 11 7 9 10 7 6 4 4 7 9 4 4 7 15 10 10 11 16 17 20 23 28 30 32 35 36 38 42 40 41 42 40
9 9 10 9 6 6 4 4 6 5 1 9 19 9 2 2 5 3 6 5 4 6 8 5 7 13 13 15 16 20 24 27 32 35 37 42 44 46 43 41 40 39 40 36
14 13 9 8 6 6 7 4 1 6 5 6 13 10 5 8 7 5 7 7 6 4 5 6 16 17 18 20 22 26 30 34 36 37 41 43 42 43 42 38 35 34 33 30
12 15 5 6 3 10 11 15 10 12 9 8 5 5 7 6 4 4 6 3 4 6 7 20 22 23 23 25 29 32 36 38 40 40 40 40 38 37 36 30 27 25 23 23
9 9 15 10 10 10 11 14 17 14 5 5 4 6 6 5 7 6 7 6 8 25 25 22 24 27 29 34 37 38 38 37 36 35 33 33 30 27 24 25 22 20 18 16
Wind_Direction_500mb
265 251 249 247 249 252 230 228 233 231 185 177 195 213 215 246 234 234 240 264 267 273 304 302 304 325 7 343 343 197 206 303 224 191 102 258 213 225 222 228 198 237 265 246
256 255 245 242 240 235 213 225 230 226 192 211 219 232 223 235 229 226 222 230 236 276 278 292 296 318 5 7 360 347 7 214 214 237 224 203 202 200 262 240 263 245 225 211
262 250 246 239 229 223 216 228 230 210 213 233 241 218 219 221 228 239 237 249 226 258 259 251 275 290 333 346 357 310 288 218 228 233 208 138 192 194 201 224 229 239 246 264
255 248 237 236 228 218 214 216 229 221 187 221 229 236 271 221 217 218 223 237 240 246 254 239 253 266 280 286 5 354 35 292 217 81 83 111 150 181 193 226 242 248 253 240
258 246 244 237 230 210 219 219 206 216 253 232 206 222 230 239 222 202 212 231 225 233 243 250 267 264 265 294 331 352 346 242 285 187 163 215 250 236 246 244 236 251 252 259
253 245 235 229 227 219 222 223 234 245 234 229 224 229 230 230 230 234 238 230 237 243 254 269 272 277 271 270 289 315 312 252 234 253 190 281 267 235 233 204 204 226 222 238
248 247 243 237 231 221 218 216 217 238 252 243 233 235 224 240 242 238 226 221 227 261 268 274 258 247 241 246 240 232 259 216 213 258 236 241 64 331 218 220 217 219 310 339
253 248 244 241 233 223 222 216 207 215 245 243 244 243 248 248 235 234 215 213 224 230 295 272 240 210 215 229 230 213 218 227 225 224 218 293 260 189 207 208 144 53 22 360
251 247 243 235 232 225 222 217 214 206 241 231 235 237 236 239 239 230 227 188 176 180 222 228 249 208 190 167 170 205 199 220 239 202 231 223 100 97 17 194 204 38 358 351
246 240 233 232 229 226 228 210 211 209 232 249 267 220 226 228 217 193 155 162 195 216 222 229 228 229 277 191 167 163 186 203 217 224 243 258 268 281 217 224 44 343 341 326
242 237 234 231 228 230 232 220 216 205 221 242 245 241 232 209 218 214 161 150 184 187 209 213 202 234 223 242 146 166 180 187 195 227 225 247 348 228 227 15 350 348 332 326
246 242 234 229 227 228 220 211 204 203 209 227 229 241 238 236 227 220 190 196 182 183 202 215 217 217 292 229 214 186 194 202 188 203 214 94 67 79 62 23 3 355 344 347
235 236 229 222 220 214 211 188 194 196 206 238 246 245 231 233 224 221 186 215 180 214 237 207 226 239 198 199 232 212 224 197 237 195 180 170 127 83 47 27 15 8 6 3
233 228 223 219 203 204 198 192 189 194 187 235 238 228 227 229 218 217 215 207 201 244 214 241 246 235 227 226 288 236 285 166 234 239 249 122 120 55 3 355 355 357 2 360
218 214 208 209 195 192 195 197 196 202 184 197 211 216 220 221 223 215 212 214 230 221 205 215 217 240 232 194 236 236 219 248 235 265 48 2 100 34 348 355 358 359 360 358
205 198 195 188 188 178 175 159 191 202 197 195 198 197 206 202 210 209 217 218 222 233 158 211 232 247 275 236 240 82 106 73 34 329 280 288 298 169 26 13 352 358 360 5
201 192 187 186 182 181 164 173 184 188 188 189 194 166 182 193 193 206 216 219 207 195 187 211 279 246 234 248 249 123 99 5 351 341 326 285 329 324 9 1 346 354 11 18
178 174 174 178 181 174 168 182 174 175 159 161 216 150 148 171 174 177 199 208 211 206 182 207 226 230 210 252 46 62 4 332 228 355 348 310 259 318 344 346 2 14 27 35
154 155 159 148 150 135 144 137 160 170 140 176 202 168 149 162 128 137 147 183 168 185 203 188 196 204 225 61 29 357 354 353 315 322 328 189 247 332 348 1 30 59 69 78
150 140 132 115 135 129 135 142 125 154 186 205 203 114 127 178 145 123 154 148 198 188 158 144 212 102 92 70 45 346 342 339 339 329 154 41 64 61 65 68 77 98 109 104
107 94 92 125 127 122 112 136 167 138 178 198 164 178 128 176 169 145 205 196 196 176 133 237 144 131 101 77 39 23 28 30 39 67 73 84 109 110 101 93 97 101 108 107
128 126 121 107 100 110 133 128 134 183 176 173 170 159 140 169 152 128 177 196 219 135 139 170 180 93 83 74 59 51 59 77 81 86 91 92 98 104 110 113 111 111 112 115
122 92 80 21 18 90 178 164 135 141 137 166 161 140 170 159 146 96 195 199 70 150 128 103 54 98 83 79 79 77 83 91 94 92 96 100 106 111 112 112 112 114 114 113
72 43 55 31 53 60 54 69 86 51 350 127 137 103 53 61 82 348 97 74 176 161 181 124 109 112 109 104 106 106 97 101 101 103 110 110 110 108 108 109 111 112 110 110
57 36 54 57 49 45 14 346 130 6 13 118 106 91 63 45 88 47 126 149 141 24 82 97 118 119 116 109 107 106 108 109 109 113 112 110 111 110 108 109 109 107 108 105
57 49 93 22 78 43 34 27 45 16 72 91 84 102 80 68 86 101 51 152 78 100 103 116 117 112 110 111 114 115 115 113 113 112 112 112 112 112 112 114 111 108 106 104
58 59 42 65 64 32 11 359 354 20 6 58 44 76 53 103 72 83 17 50 101 121 112 111 119 118 118 123 122 119 118 117 116 116 116 113 111 109 106 100 98 100 99 95
Wind_Speed_850mb
48 44 48 37 31 30 28 17 9 16 27 19 9 12 16 18 20 33 21 11 14 18 17 15 10 4 10 35 36 15 21 6 15 19 7 17 33 32 38 21 20 15 16 18
44 48 47 47 44 31 26 15 18 17 31 12 20 13 31 25 21 24 18 20 9 6 9 10 10 6 9 23 24 23 4 16 12 22 21 7 17 11 16 25 24 27 16 7
49 52 49 47 42 35 38 12 7 23 30 28 15 34 28 28 33 33 26 14 14 16 23 23 16 15 6 26 17 26 14 6 19 17 6 5 14 15 7 18 16 21 26 25
53 50 47 53 45 38 43 25 11 20 11 23 32 24 11 39 30 33 29 19 30 26 20 20 23 25 26 11 17 12 5 4 2 5 5 3 7 9 8 16 16 13 12 19
53 52 53 50 48 40 53 20 14 13 24 21 30 29 32 35 33 24 24 30 20 25 34 35 24 16 11 11 8 13 14 3 8 4 5 7 11 13 15 15 17 18 22 24
56 52 54 55 55 53 47 48 34 13 30 31 23 27 33 39 40 29 42 28 21 26 26 29 29 33 30 26 16 8 8 6 8 15 4 7 14 25 20 14 14 15 15 4
63 66 67 67 68 73 65 48 42 28 17 22 30 35 34 38 35 39 31 32 18 11 9 19 30 32 32 32 28 24 9 4 5 7 4 13 2 7 5 10 10 11 9 14
75 73 72 73 74 82 85 67 51 33 20 38 42 37 27 38 50 39 30 31 29 17 12 7 14 14 18 24 34 29 26 8 7 9 21 16 11 12 11 14 9 7 8 12
75 75 73 71 76 80 86 88 80 46 16 38 59 38 46 25 27 24 39 14 17 22 8 8 8 10 8 12 14 29 26 22 12 10 13 12 6 13 3 4 10 12 13 19
63 63 65 69 71 70 74 90 88 75 34 36 21 33 36 25 19 8 11 16 16 22 8 8 10 7 1 10 19 17 20 21 26 19 14 8 15 4 8 14 6 27 30 27
64 67 70 71 71 71 72 77 100 90 49 52 39 42 48 38 28 12 19 12 13 9 13 10 9 8 9 7 13 17 21 21 15 22 16 16 7 5 7 12 17 26 30 27
61 63 67 73 75 69 68 59 93 89 62 18 43 53 44 55 51 45 34 17 13 21 14 10 7 8 2 14 8 14 13 12 10 16 11 13 16 21 14 13 12 18 25 27
46 47 53 65 68 67 67 56 80 71 50 48 57 38 55 54 51 43 19 22 11 13 3 5 7 10 11 10 16 9 14 9 8 5 9 8 7 11 18 17 15 15 18 22
45 47 46 49 64 65 77 79 63 82 20 8 17 42 57 57 60 51 51 21 29 23 12 10 7 9 10 10 4 12 5 13 11 14 16 10 11 8 15 18 15 16 17 18
42 41 48 50 58 66 62 75 72 74 51 12 24 22 51 43 48 56 51 41 26 23 14 7 10 6 7 5 4 13 8 10 11 10 9 6 6 7 12 13 19 22 26 26
35 39 41 45 55 68 67 18 66 82 63 4 7 12 20 50 49 57 56 54 39 14 5 6 10 12 7 6 9 12 8 6 7 2 7 13 15 4 6 9 12 16 19 21
46 41 43 47 64 80 49 15 36 85 57 11 5 8 6 40 39 42 46 42 22 20 11 8 9 6 9 10 19 16 4 4 6 6 14 10 6 2 11 12 11 14 14 17
48 43 48 49 64 66 24 13 56 84 25 12 4 4 12 38 16 13 26 18 22 16 13 10 13 12 2 5 6 3 5 11 2 12 10 12 4 7 11 12 9 9 11 13
51 51 55 89 62 28 25 47 74 57 11 11 8 11 8 26 10 11 11 9 4 8 6 9 12 8 8 8 6 10 13 12 17 19 8 6 4 6 11 10 8 9 14 19
63 77 31 15 39 63 77 40 9 8 7 5 3 5 5 18 12 6 10 10 7 9 6 14 7 6 15 10 5 7 11 12 14 9 5 6 8 7 9 13 14 16 18 24
23 11 16 88 83 42 9 9 8 7 6 10 9 11 7 13 10 8 12 5 7 9 6 5 6 6 8 5 6 8 9 9 10 9 10 9 11 14 19 21 21 24 28 32
28 54 63 29 10 8 7 7 7 7 7 9 10 10 7 11 8 6 8 4 5 6 8 6 6 7 9 7 9 12 12 12 14 13 18 21 22 23 28 30 32 36 41 42
67 11 10 4 10 8 5 14 7 9 5 13 11 7 9 10 7 6 4 4 7 9 4 4 7 15 10 10 11 16 17 20 23 28 30 32 35 36 38 42 40 41 42 40
9 9 10 9 6 6 4 4 6 5 1 9 19 9 2 2 5 3 6 5 4 6 8 5 7 13 13 15 16 20 24 27 32 35 37 42 44 46 43 41 40 39 40 36
14 13 9 8 6 6 7 4 1 6 5 6 13 10 5 8 7 5 7 7 6 4 5 6 16 17 18 20 22 26 30 34 36 37 41 43 42 43 42 38 35 34 33 30
12 15 5 6 3 10 11 15 10 12 9 8 5 5 7 6 4 4 6 3 4 6 7 20 22 23 23 25 29 32 36 38 40 40 40 40 38 37 36 30 27 25 23 23
9 9 15 10 10 10 11 14 17 14 5 5 4 6 6 5 7 6 7 6 8 25 25 22 24 27 29 34 37 38 38 37 36 35 33 33 30 27 24 25 22 20 18 16
Wind_Direction_850mb
265 251 249 247 249 252 230 228 233 231 185 177 195 213 215 246 234 234 240 264 267 273 304 302 304 325 7 343 343 197 206 303 224 191 102 258 213 225 222 228 198 237 265 246
256 255 245 242 240 235 213 225 230 226 192 211 219 232 223 235 229 226 222 230 236 276 278 292 296 318 5 7 360 347 7 214 214 237 224 203 202 200 262 240 263 245 225 211
262 250 246 239 229 223 216 228 230 210 213 233 241 218 219 221 228 239 237 249 226 258 259 251 275 290 333 346 357 310 288 218 228 233 208 138 192 194 201 224 229 239 246 264
255 248 237 236 228 218 214 216 229 221 187 221 229 236 271 221 217 218 223 237 240 246 254 239 253 266 280 286 5 354 35 292 217 81 83 111 150 181 193 226 242 248 253 240
258 246 244 237 230 210 219 219 206 216 253 232 206 222 230 239 222 202 212 231 225 233 243 250 267 264 265 294 331 352 346 242 285 187 163 215 250 236 246 244 236 251 252 259
253 245 235 229 227 219 222 223 234 245 234 229 224 229 230 230 230 234 238 230 237 243 254 269 272 277 271 270 289 315 312 252 234 253 190 281 267 235 233 204 204 226 222 238
248 247 243 237 231 221 218 216 217 238 252 243 233 235 224 240 242 238 226 221 227 261 268 274 258 247 241 246 240 232 259 216 213 258 236 241 64 331 218 220 217 219 310 339
253 248 244 241 233 223 222 216 207 215 245 243 244 243 248 248 235 234 215 213 224 230 295 272 240 210 215 229 230 213 218 227 225 224 218 293 260 189 207 208 144 53 22 360
251 247 243 235 232 225 222 217 214 206 241 231 235 237 236 239 239 230 227 188 176 180 222 228 249 208 190 167 170 205 199 220 239 202 231 223 100 97 17 194 204 38 358 351
246 240 233 232 229 226 228 210 211 209 232 249 267 220 226 228 217 193 155 162 195 216 222 229 228 229 277 191 167 163 186 203 217 224 243 258 268 281 217 224 44 343 341 326
242 237 234 231 228 230 232 220 216 205 221 242 245 241 232 209 218 214 161 150 184 187 209 213 202 234 223 242 146 166 180 187 195 227 225 247 348 228 227 15 350 348 332 326
246 242 234 229 227 228 220 211 204 203 209 227 229 241 238 236 227 220 190 196 182 183 202 215 217 217 292 229 214 186 194 202 188 203 214 94 67 79 62 23 3 355 344 347
235 236 229 222 220 214 211 188 194 196 206 238 246 245 231 233 224 221 186 215 180 214 237 207 226 239 198 199 232 212 224 197 237 195 180 170 127 83 47 27 15 8 6 3
233 228 223 219 203 204 198 192 189 194 187 235 238 228 227 229 218 217 215 207 201 244 214 241 246 235 227 226 288 236 285 166 234 239 249 122 120 55 3 355 355 357 2 360
218 214 208 209 195 192 195 197 196 202 184 197 211 216 220 221 223 215 212 214 230 221 205 215 217 240 232 194 236 236 219 248 235 265 48 2 100 34 348 355 358 359 360 358
205 198 195 188 188 178 175 159 191 202 197 195 198 197 206 202 210 209 217 218 222 233 158 211 232 247 275 236 240 82 106 73 34 329 280 288 298 169 26 13 352 358 360 5
201 192 187 186 182 181 164 173 184 188 188 189 194 166 182 193 193 206 216 219 207 195 187 211 279 246 234 248 249 123 99 5 351 341 326 285 329 324 9 1 346 354 11 18
178 174 174 178 181 174 168 182 174 175 159 161 216 150 148 171 174 177 199 208 211 206 182 207 226 230 210 252 46 62 4 332 228 355 348 310 259 318 344 346 2 14 27 35
154 155 159 148 150 135 144 137 160 170 140 176 202 168 149 162 128 137 147 183 168 185 203 188 196 204 225 61 29 357 354 353 315 322 328 189 247 332 348 1 30 59 69 78
150 140 132 115 135 129 135 142 125 154 186 205 203 114 127 178 145 123 154 148 198 188 158 144 212 102 92 70 45 346 342 339 339 329 154 41 64 61 65 68 77 98 109 104
107 94 92 125 127 122 112 136 167 138 178 198 164 178 128 176 169 145 205 196 196 176 133 237 144 131 101 77 39 23 28 30 39 67 73 84 109 110 101 93 97 101 108 107
128 126 121 107 100 110 133 128 134 183 176 173 170 159 140 169 152 128 177 196 219 135 139 170 180 93 83 74 59 51 59 77 81 86 91 92 98 104 110 113 111 111 112 115
122 92 80 21 18 90 178 164 135 141 137 166 161 140 170 159 146 96 195 199 70 150 128 103 54 98 83 79 79 77 83 91 94 92 96 100 106 111 112 112 112 114 114 113
72 43 55 31 53 60 54 69 86 51 350 127 137 103 53 61 82 348 97 74 176 161 181 124 109 112 109 104 106 106 97 101 101 103 110 110 110 108 108 109 111 112 110 110
57 36 54 57 49 45 14 346 130 6 13 118 106 91 63 45 88 47 126 149 141 24 82 97 118 119 116 109 107 106 108 109 109 113 112 110 111 110 108 109 109 107 108 105
57 49 93 22 78 43 34 27 45 16 72 91 84 102 80 68 86 101 51 152 78 100 103 116 117 112 110 111 114 115 115 113 113 112 112 112 112 112 112 114 111 108 106 104
58 59 42 65 64 32 11 359 354 20 6 58 44 76 53 103 72 83 17 50 101 121 112 111 119 118 118 123 122 119 118 117 116 116 116 113 111 109 106 100 98 100 99 95